Weather History for KGFK - April, 2014

Change the Weather History Date:

Thursday, April 3, 2014

  Actual Average Record
Temperature  
Mean Temperature 28 °F 35 °F  
Max Temperature 35 °F 46 °F 74 °F (1991)
Min Temperature 21 °F 25 °F -3 °F (1954)
Degree Days  
Heating Degree Days 37 30  
Month to date heating degree days 144 91  
Since 1 July heating degree days 9494 8476  
Cooling Degree Days 0 0  
Month to date cooling degree days 0 0  
Year to date cooling degree days 0 0  
Moisture  
Dew Point 25 °F    
Average Humidity 82    
Maximum Humidity 96    
Minimum Humidity 68    
Precipitation  
Precipitation 0.13 in 0.03 in 0.65 in (1963)
Month to date precipitation 0.13 0.09  
Year to date precipitation 2.13 2.12  
Snow  
Snow 1.10 in 0.10 in - ()
Month to date snowfall 1.1 0.4  
Since 1 July snowfall 60.3 44.8  
Snow Depth 10.00 in    
Sea Level Pressure  
Sea Level Pressure 30.02 in    
Wind  
Wind Speed 9 mph (NNE)    
Max Wind Speed 21 mph    
Max Gust Speed 24 mph    
Visibility 3 miles    
Events Snow    
T = Trace of Precipitation, MM = Missing Value Source: NWS Daily Summary

Daily Weather History Graph

Daily Weather History Graph

Search for Another Location

Airport or City:

Trip Planner

Search our weather history database for the weather conditions in past years. The results will help you decide how hot, cold, wet, or windy it might be!

Date:

Astronomy

Apr. 03, 2014 Rise Set
Actual Time 7:02 AM CDT 8:01 PM CDT
Civil Twilight 6:31 AM CDT 8:33 PM CDT
Nautical Twilight 5:53 AM CDT 9:11 PM CDT
Astronomical Twilight 5:13 AM CDT 9:51 PM CDT
Moon 9:18 AM CDT No Moon Set
Length of Visible Light 14h 02m
Length of Day
12h 58m
Waxing Crescent, 17% of the Moon is Illuminated
Apr 3
Waxing Crescent
Apr 7
First Quarter
Apr 15
Full
Apr 22
Last Quarter
Apr 29
New

Hourly Weather History & Observations

Time (CDT) Temp. Windchill Dew Point Humidity Pressure Visibility Wind Dir Wind Speed Gust Speed Precip Events Conditions
12:53 AM 21.9 °F - 12.9 °F 68% 30.14 in 10.0 mi Calm Calm - N/A   Overcast
1:53 AM 21.9 °F 14.5 °F 14.0 °F 72% 30.12 in 10.0 mi NNW 5.8 mph - N/A   Overcast
2:53 AM 23.0 °F - 16.0 °F 74% 30.10 in 10.0 mi Calm Calm - N/A   Overcast
3:39 AM 21.2 °F 11.7 °F 17.6 °F 86% 30.05 in 2.5 mi NNW 8.1 mph - 0.00 in Snow Light Snow
3:53 AM 21.9 °F 13.4 °F 18.0 °F 85% 30.09 in 3.0 mi NNW 6.9 mph - 0.00 in Snow Light Snow
4:08 AM 21.2 °F 12.6 °F 17.6 °F 86% 30.04 in 2.0 mi North 6.9 mph - 0.01 in Snow Light Snow
4:16 AM 21.2 °F 11.7 °F 19.4 °F 93% 30.04 in 1.2 mi North 8.1 mph - 0.01 in Snow Light Snow
4:34 AM 21.2 °F 10.9 °F 19.4 °F 93% 30.04 in 3.0 mi North 9.2 mph - 0.01 in Snow Light Snow
4:41 AM 21.2 °F 12.6 °F 19.4 °F 93% 30.04 in 3.0 mi North 6.9 mph - 0.01 in Snow Light Snow
4:48 AM 21.2 °F 11.7 °F 19.4 °F 93% 30.04 in 4.0 mi North 8.1 mph - 0.01 in Snow Light Snow
4:53 AM 21.9 °F 12.5 °F 19.0 °F 89% 30.08 in 4.0 mi North 8.1 mph - 0.02 in Snow Light Snow
4:59 AM 21.2 °F 10.9 °F 19.4 °F 93% 30.03 in 1.8 mi North 9.2 mph - 0.00 in Snow Light Snow
5:27 AM 21.2 °F 11.7 °F 19.4 °F 93% 30.03 in 3.0 mi NNW 8.1 mph - 0.01 in Snow Light Snow
5:35 AM 21.2 °F 10.9 °F 19.4 °F 93% 30.02 in 4.0 mi NNW 9.2 mph - 0.01 in Snow Light Snow
5:53 AM 21.9 °F 13.4 °F 19.0 °F 89% 30.08 in 8.0 mi North 6.9 mph - 0.01 in Snow Light Snow
6:14 AM 21.2 °F 12.6 °F 19.4 °F 93% 30.03 in 2.5 mi North 6.9 mph - 0.01 in Snow Light Snow
6:45 AM 21.2 °F 13.6 °F 19.4 °F 93% 30.04 in 1.2 mi North 5.8 mph - 0.03 in Snow Light Snow
6:53 AM 21.9 °F 15.7 °F 19.9 °F 92% 30.09 in 0.8 mi North 4.6 mph - 0.04 in Snow Light Snow
7:09 AM 23.0 °F 18.4 °F 21.2 °F 93% 30.04 in 1.0 mi North 3.5 mph - 0.01 in Snow Light Snow
7:43 AM 23.0 °F 14.7 °F 21.2 °F 93% 30.03 in 1.0 mi North 6.9 mph - 0.02 in Snow Light Snow
7:53 AM 23.0 °F 15.8 °F 21.0 °F 92% 30.08 in 3.0 mi North 5.8 mph - 0.02 in Snow Light Snow
8:40 AM 24.8 °F 17.9 °F 21.2 °F 86% 30.03 in 2.5 mi NNE 5.8 mph - 0.00 in Snow Light Snow
8:46 AM 24.8 °F 17.9 °F 21.2 °F 86% 30.03 in 2.0 mi NNE 5.8 mph - 0.00 in Snow Light Snow
8:53 AM 25.0 °F 17.1 °F 21.9 °F 88% 30.08 in 1.2 mi NNE 6.9 mph - 0.00 in Snow Light Snow
9:32 AM 26.6 °F 18.2 °F 23.0 °F 86% 30.02 in 2.0 mi NNE 8.1 mph - 0.01 in Snow Light Snow
9:53 AM 27.0 °F 19.5 °F 24.1 °F 89% 30.06 in 3.0 mi NNE 6.9 mph - 0.01 in Snow Light Snow
10:53 AM 30.0 °F 22.4 °F 26.1 °F 85% 30.05 in 3.0 mi ENE 8.1 mph - 0.01 in Snow Light Snow
11:06 AM 30.2 °F 22.6 °F 26.6 °F 86% 30.00 in 4.0 mi ENE 8.1 mph - 0.00 in Snow Light Snow
11:53 AM 32.0 °F 24.8 °F 28.0 °F 85% 30.03 in 5.0 mi East 8.1 mph - 0.00 in Snow Light Snow
12:35 PM 33.8 °F 27.0 °F 28.4 °F 81% 29.99 in 4.0 mi East 8.1 mph - 0.00 in Snow Light Snow
12:53 PM 34.0 °F 27.2 °F 30.0 °F 85% 30.02 in 3.0 mi East 8.1 mph - 0.00 in Snow Light Snow
1:16 PM 33.8 °F 27.7 °F 30.2 °F 87% 29.98 in 5.0 mi ENE 6.9 mph - 0.00 in Snow Light Snow
1:42 PM 33.8 °F 27.7 °F 30.2 °F 87% 29.97 in 1.8 mi ENE 6.9 mph - 0.00 in Snow Light Snow
1:53 PM 34.0 °F 27.2 °F 30.0 °F 85% 30.02 in 1.5 mi ENE 8.1 mph - 0.00 in Snow Light Snow
2:04 PM 33.8 °F 27.7 °F 30.2 °F 87% 29.98 in 2.0 mi ENE 6.9 mph - 0.00 in Snow Light Snow
2:19 PM 33.8 °F 27.7 °F 30.2 °F 87% 29.98 in 2.0 mi ENE 6.9 mph - 0.00 in Snow Light Snow
2:53 PM 34.0 °F 27.2 °F 30.0 °F 85% 30.01 in 2.0 mi ENE 8.1 mph - 0.00 in Snow Light Snow
3:22 PM 33.8 °F 27.0 °F 30.2 °F 87% 29.96 in 1.8 mi ENE 8.1 mph - 0.01 in Snow Light Snow
3:34 PM 33.8 °F 27.7 °F 30.2 °F 87% 29.96 in 2.0 mi NE 6.9 mph - 0.01 in Snow Light Snow
3:53 PM 34.0 °F 28.8 °F 30.0 °F 85% 30.00 in 2.0 mi NE 5.8 mph - 0.01 in Snow Light Snow
4:13 PM 33.8 °F 27.7 °F 30.2 °F 87% 29.96 in 1.5 mi NE 6.9 mph - 0.00 in Snow Light Snow
4:27 PM 33.8 °F 28.6 °F 30.2 °F 87% 29.96 in 2.0 mi NNE 5.8 mph - 0.00 in Snow Light Snow
4:34 PM 33.8 °F 27.7 °F 30.2 °F 87% 29.96 in 2.0 mi North 6.9 mph - 0.01 in Snow Light Snow
4:43 PM 33.8 °F 27.7 °F 30.2 °F 87% 29.96 in 2.0 mi North 6.9 mph - 0.01 in Snow Light Snow
4:53 PM 33.1 °F 26.1 °F 30.0 °F 89% 30.00 in 2.0 mi North 8.1 mph - 0.01 in Snow Light Snow
5:25 PM 33.8 °F 27.7 °F 30.2 °F 87% 29.96 in 2.5 mi NNE 6.9 mph - 0.00 in Snow Light Snow
5:48 PM 33.8 °F 26.4 °F 30.2 °F 87% 29.96 in 3.0 mi North 9.2 mph - 0.00 in Snow Light Snow
5:49 PM 33.1 °F 25.5 °F 30.0 °F 89% 30.00 in 3.0 mi North 9.2 mph - 0.00 in Snow Light Snow
5:56 PM 33.8 °F 27.0 °F 30.2 °F 87% 29.96 in 3.0 mi North 8.1 mph - 0.00 in Snow Light Snow
6:38 PM 30.2 °F 20.2 °F 28.4 °F 93% 29.97 in 2.5 mi North 12.7 mph - 0.00 in Snow Light Snow
6:53 PM 30.0 °F 20.5 °F 28.0 °F 92% 30.02 in 2.5 mi North 11.5 mph - 0.00 in Snow Light Snow
7:53 PM 30.0 °F 19.5 °F 28.0 °F 92% 30.03 in 2.5 mi North 13.8 mph - 0.00 in Snow Light Snow
8:21 PM 28.4 °F 17.0 °F 26.6 °F 93% 29.98 in 2.5 mi North 15.0 mph - 0.00 in Snow Light Snow
8:53 PM 28.9 °F 18.6 °F 27.0 °F 92% 30.04 in 2.5 mi North 12.7 mph - 0.00 in   Overcast
9:03 PM 28.4 °F 18.5 °F 26.6 °F 93% 29.99 in 7.0 mi North 11.5 mph - N/A   Overcast
10:53 PM 28.9 °F 17.7 °F 26.1 °F 89% 30.03 in 4.0 mi North 15.0 mph - 0.00 in Snow Light Snow
11:23 PM 28.4 °F 16.2 °F 26.6 °F 93% 29.98 in 1.8 mi North 17.3 mph - 0.00 in Snow Light Snow
11:33 PM 28.4 °F 16.2 °F 26.6 °F 93% 29.98 in 2.5 mi North 17.3 mph - 0.00 in Snow Light Snow
11:40 PM 28.4 °F 16.6 °F 26.6 °F 93% 29.98 in 4.0 mi North 16.1 mph - 0.00 in Snow Light Snow
11:53 PM 28.0 °F 16.1 °F 26.1 °F 92% 30.02 in 5.0 mi North 16.1 mph - 0.00 in   Overcast